Regional Weather Roundup
Issued by NWS

Home | Current Version | Previous Version | Text Only | Print | Product List | Glossary On
Versions: 1 2 3 4 5 6 7 8 9 10 11 12 13 14 15 16 17 18 19 20 21 22 23 24 25 26 27 28 29 30 31 32 33 34 35 36 37 38 39 40 41 42 43 44 45 46 47 48 49 50
000
ASUS43 KLMK 290602
RWRKY
KENTUCKY REGIONAL WEATHER ROUNDUP
NATIONAL WEATHER SERVICE LOUISVILLE KY
200 AM EDT MON MAY 29 2017

NOTE "FAIR" INDICATES FEW OR NO CLOUDS BELOW 12,000 FEET
WITH NO SIGNIFICANT WEATHER AND/OR OBSTRUCTIONS TO VISIBILITY.

KYZ001>023-026-027-061>063-070>075-290700-
WESTERN AND SOUTH CENTRAL KENTUCKY

CITY           SKY/WX    TMP DP  RH WIND       PRES   REMARKS
PADUCAH        CLOUDY    65  63  93 SW5       29.91R FOG
HENDERSON      CLOUDY    65  64  97 SW5       29.90S
OWENSBORO      CLOUDY    66  65  96 CALM      29.90S
HOPKINSVILLE   CLOUDY    65  65  99 SW5       29.93R
BOWLING GREEN  CLOUDY    67  64  90 SW5       29.92S
GLASGOW        NOT AVBL
$$

KYZ024-025-028>034-038-045-046-053-290700-
NORTH CENTRAL KENTUCKY

CITY           SKY/WX    TMP DP  RH WIND       PRES   REMARKS
LOUISVILLE/SDF CLOUDY    68  65  90 SW8       29.88S
LOUISVILLE/LOU CLOUDY    68  66  93 W6        29.88S
FORT KNOX      MOCLDY    65  64  97 SW7       29.88S
$$

KYZ035>037-039>044-047>052-055>060-089>105-290700-
NORTHEAST KENTUCKY

CITY           SKY/WX    TMP DP  RH WIND       PRES   REMARKS
LEXINGTON      CLOUDY    66  62  87 SW8       29.90R
COVINGTON      CLOUDY    62  60  93 SW6       29.86R
FRANKFORT      PTCLDY    67  62  84 W3        29.88R
$$

KYZ054-064>069-076>088-106>120-290700-
SOUTHEAST KENTUCKY

CITY           SKY/WX    TMP DP  RH WIND       PRES   REMARKS
JACKSON        MOCLDY    66  62  87 VRB3      29.91S
LONDON         CLOUDY    67  60  78 SW3       29.93S
SOMERSET       NOT AVBL
MIDDLESBORO    CLOUDY    63  63  99 CALM      29.95R
MONTICELLO     PTCLDY    64  62  93 W12       29.95R
$$





USA.gov is the U.S. government's official web portal to all federal, state and local government web resources and services.